Weather observations for the past three days for
Springfield - Abraham Lincoln Capital Airport
Metric (Imperial)
Date Time (cdt) Wind (kph) Vis. (km) Weather Sky Cond. Temperature (ºC) Relative Humidity Wind Chill (°C) Heat Index (°C) Pressure Precipitation (cm)
Air Dwpt 6 hour altimeter (cm) sea level (mb) 1 hr 3 hr 6 hr
Max. Min.
04 06:52 SW 7 16.09 Fair CLR 25.6 21.1 28.3 24.4 76% 27 76.1 1014.0
04 05:52 Calm 16.09 Fair CLR 25 21.1 79% 26 76.07 1013.6
04 04:52 SW 7 16.09 Fair CLR 26.7 21.1 71% 28 76.05 1013.1
04 03:52 S 9 16.09 Fair CLR 26.7 21.1 71% 28 76.02 1012.6
04 02:52 S 7 16.09 Fair CLR 26.7 21.1 71% 28 76.02 1012.9
04 01:52 S 9 16.09 Fair CLR 27.2 21.1 69% 29 76.05 1013.1
04 00:52 SW 11 16.09 Fair CLR 28.3 21.1 32.8 26.1 65% 31 76.07 1013.4
03 23:52 S 9 16.09 Fair CLR 28.3 20.6 63% 30 76.05 1013.1
03 22:52 S 9 16.09 Fair CLR 27.8 20.6 65% 30 76.02 1013.0
03 21:52 S 7 16.09 Fair CLR 26.7 20 67% 28 76.05 1013.1
03 20:52 S 7 16.09 Fair CLR 28.9 18.9 55% 30 76 1012.6
03 19:52 S 11 16.09 Fair CLR 30.6 20 53% 33 75.95 1011.9
03 18:52 S 9 16.09 Fair CLR 32.8 20 37.2 32.8 47% 35 75.97 1012.0
03 17:52 SW 7 16.09 Fair CLR 35.6 19.4 39% 38 75.95 1012.0
03 16:52 SW 15 16.09 Fair CLR 36.1 18.9 36% 38 75.95 1012.0
03 15:52 SW 13 16.09 Fair CLR 36.7 19.4 36% 39 75.97 1012.3
03 14:52 W 13 16.09 A Few Clouds FEW070 36.7 19.4 36% 39 76.02 1012.7
03 13:52 SE 7 16.09 Fair CLR 35.6 20.6 41% 39 76.05 1013.3
03 12:52 W 6 16.09 Fair CLR 35 21.1 35.6 25 44% 39 76.1 1013.8
03 11:52 W 9 16.09 A Few Clouds FEW100 34.4 21.7 48% 38 76.15 1014.3
03 10:52 SW 13 16.09 Partly Cloudy FEW100 SCT120 32.8 21.7 52% 36 76.15 1014.5
03 09:52 SW 15 16.09 Partly Cloudy SCT120 31.7 21.7 55% 35 76.15 1014.5
03 08:52 SW 11 16.09 Partly Cloudy SCT120 27.8 21.1 67% 30 76.15 1014.6
03 07:52 SW 11 16.09 Fair CLR 26.7 21.1 71% 28 76.15 1014.6
03 06:52 SW 9 16.09 Fair CLR 25 20.6 27.8 24.4 77% 26 76.12 1014.4
03 05:52 SW 9 16.09 Fair CLR 25 20.6 77% 26 76.1 1014.0
03 04:52 S 7 16.09 Fair CLR 25 21.1 79% 26 76.1 1013.9
03 03:52 S 7 16.09 Fair CLR 25 21.1 79% 26 76.1 1013.9
03 02:52 S 9 16.09 Fair CLR 25 21.1 79% 26 76.1 1013.8
03 01:52 S 9 16.09 Fair CLR 26.7 21.1 71% 28 76.1 1013.9
03 00:52 S 11 16.09 Fair CLR 27.8 21.1 33.3 27.8 67% 30 76.12 1014.1
02 23:52 S 17 16.09 Fair CLR 28.9 20.6 61% 31 76.1 1013.7
02 22:52 S 15 16.09 Fair CLR 30 20.6 57% 32 76.1 1013.6
02 21:52 S 11 16.09 Fair CLR 28.9 20.6 61% 31 76.07 1013.6
02 20:52 S 11 16.09 Fair CLR 28.9 20.6 61% 31 76.05 1013.3
02 19:52 S 9 16.09 Fair CLR 30 21.1 59% 33 76.02 1013.0
02 18:52 S 9 16.09 Partly Cloudy SCT075 33.3 20.6 37.8 33.3 47% 36 76.05 1013.1
02 17:52 SW 9 16.09 Fair CLR 35.6 19.4 39% 38 76.02 1012.9
02 16:52 SW 11 16.09 A Few Clouds FEW090 36.1 19.4 37% 38 76.05 1013.1
02 15:52 Calm 16.09 Partly Cloudy SCT080 36.1 19.4 37% 38 76.07 1013.4
02 14:52 Vrbl 9 16.09 A Few Clouds FEW070 36.7 20 38% 40 76.1 1013.9
02 13:52 SW 13 16.09 Fair CLR 36.7 20.6 39% 40 76.15 1014.4
02 12:52 W 22 16.09 Fair CLR 36.1 20 36.1 25 39% 39 76.17 1014.8
02 11:52 SW 17 16.09 Fair CLR 35 20.6 43% 38 76.2 1015.3
02 10:52 SW 20 16.09 Fair CLR 33.3 20.6 47% 36 76.23 1015.6
02 09:52 SW 13 16.09 Fair CLR 31.1 21.1 55% 34 76.23 1015.6
02 08:52 SW 17 16.09 Fair CLR 28.9 21.1 63% 31 76.23 1015.7
02 07:52 SW 11 16.09 Fair CLR 26.7 20.6 69% 28 76.25 1015.8
02 06:52 SW 9 16.09 Fair CLR 25 20.6 27.8 24.4 77% 26 76.23 1015.6
02 05:52 SW 7 16.09 Fair CLR 25 20.6 77% 26 76.2 1015.3
02 04:52 SW 7 16.09 Fair CLR 25 20.6 77% 26 76.17 1015.0
02 03:52 S 11 16.09 Fair CLR 26.1 20.6 72% 28 76.15 1014.5
02 02:52 S 9 16.09 Fair CLR 26.7 20.6 69% 28 76.15 1014.4
02 01:52 S 13 16.09 Fair CLR 26.7 20 67% 28 76.17 1015.0
02 00:52 S 15 16.09 Fair CLR 27.8 19.4 33.3 25.6 60% 29 76.2 1015.0
01 23:52 S 13 16.09 Fair CLR 28.9 19.4 57% 30 76.17 1014.9
01 22:52 S 11 16.09 Fair CLR 29.4 19.4 55% 31 76.17 1014.9
01 21:52 S 9 16.09 Fair CLR 27.8 20 63% 29 76.17 1014.8
01 19:52 S 9 16.09 Fair CLR 30.6 19.4 51% 32 76.1 1014.0
01 18:52 SW 6 16.09 Fair CLR 33.3 19.4 37.2 33.3 44% 35 76.1 1014.0
01 17:52 Calm 16.09 Fair CLR 35.6 21.1 43% 39 76.12 1014.1
01 16:52 N 6 16.09 A Few Clouds FEW085 36.7 20 38% 40 76.1 1014.0
01 15:52 Vrbl 9 16.09 Fair CLR 36.7 18.3 34% 38 76.12 1014.3
01 14:52 S 9 16.09 Fair CLR 36.1 18.9 36% 38 76.17 1014.7
01 13:52 SW 13 16.09 Fair CLR 35.6 19.4 39% 38 76.23 1015.5
01 12:52 W 11 16.09 Fair CLR 35 19.4 35 24.4 40% 37 76.25 1015.9
01 11:52 W 13 16.09 Fair CLR 33.9 20 44% 36 76.28 1016.4
01 10:52 W 15 16.09 Fair CLR 32.8 19.4 45% 35 76.3 1016.6
01 09:52 W 17 16.09 Fair CLR 30.6 20 53% 33 76.3 1016.4
01 08:52 SW 11 16.09 Fair CLR 27.8 20 63% 29 76.3 1016.6
Date Time (cdt) Wind (kph) Vis. (km) Weather Sky Cond. Air Dwpt Max. Min. Relative Humidity Wind Chill (°C) Heat Index (°C) altimeter (cm) sea level (mb) 1 hr 3 hr 6 hr
6 hour
Temperature (ºC) Pressure Precipitation (cm)